Total_Precipitation_Accumulation
0.05 0.26 0.46 0.18 0.06 0.05 0.09 0.10 0.12 0.19 0.41 0.28 0.31 0.22 0.16 0.12 0.10 0.11 0.07 0.06 0.06 0.04 0.01 0.02 0.03 0.00 0.00 0.00 0.00 0.00 0.00 0.00 0.00 0.02 0.06 0.10 0.05 0.01 0.00 0.00 0.00 0.00 0.00
0.21 0.29 0.25 0.45 0.36 0.16 0.14 0.14 0.13 0.12 0.15 0.25 0.20 0.33 0.32 0.11 0.14 0.16 0.06 0.07 0.09 0.05 0.03 0.03 0.01 0.00 0.01 0.00 0.00 0.00 0.00 0.00 0.00 0.00 0.00 0.00 0.00 0.00 0.00 0.00 0.00 0.00 0.00
0.26 0.35 0.35 0.32 0.32 0.32 0.30 0.46 0.23 0.14 0.20 0.09 0.23 0.37 0.24 0.21 0.32 0.25 0.16 0.13 0.09 0.07 0.05 0.04 0.02 0.02 0.01 0.00 0.00 0.00 0.00 0.00 0.00 0.00 0.00 0.00 0.00 0.00 0.00 0.00 0.00 0.00 0.01
0.18 0.21 0.21 0.21 0.19 0.20 0.13 0.12 0.08 0.12 0.14 0.04 0.11 0.21 0.20 0.19 0.28 0.21 0.30 0.30 0.10 0.06 0.06 0.04 0.04 0.07 0.07 0.05 0.01 0.01 0.01 0.01 0.01 0.01 0.00 0.00 0.01 0.00 0.00 0.01 0.00 0.00 0.01
0.07 0.08 0.08 0.11 0.09 0.09 0.11 0.13 0.15 0.09 0.10 0.08 0.11 0.15 0.26 0.49 0.53 0.56 0.45 0.38 0.21 0.19 0.15 0.07 0.23 0.25 0.15 0.11 0.03 0.07 0.07 0.05 0.02 0.00 0.00 0.00 0.01 0.00 0.00 0.01 0.00 0.00 0.00
0.06 0.10 0.09 0.09 0.13 0.25 0.20 0.17 0.18 0.19 0.13 0.20 0.28 0.29 0.36 0.45 0.50 0.40 0.17 0.16 0.27 0.29 0.24 0.20 0.19 0.21 0.14 0.16 0.15 0.05 0.06 0.07 0.04 0.05 0.02 0.01 0.04 0.05 0.01 0.01 0.00 0.00 0.00
0.09 0.11 0.09 0.10 0.06 0.13 0.22 0.23 0.23 0.28 0.19 0.24 0.18 0.18 0.23 0.18 0.10 0.02 0.01 0.01 0.09 0.23 0.29 0.27 0.20 0.17 0.33 0.24 0.40 0.32 0.19 0.17 0.13 0.20 0.09 0.03 0.06 0.10 0.08 0.03 0.04 0.03 0.01
0.09 0.04 0.03 0.02 0.00 0.00 0.00 0.01 0.03 0.09 0.15 0.18 0.15 0.06 0.01 0.00 0.00 0.00 0.00 0.00 0.05 0.21 0.32 0.29 0.24 0.40 0.31 0.08 0.05 0.07 0.09 0.15 0.23 0.16 0.11 0.13 0.11 0.13 0.09 0.07 0.04 0.01 0.00
0.12 0.06 0.02 0.00 0.00 0.00 0.00 0.01 0.01 0.03 0.04 0.14 0.09 0.04 0.00 0.00 0.00 0.00 0.00 0.02 0.15 0.27 0.47 0.23 0.16 0.16 0.15 0.07 0.02 0.01 0.03 0.09 0.26 0.23 0.11 0.07 0.06 0.03 0.05 0.01 0.02 0.02 0.00
0.12 0.11 0.05 0.02 0.01 0.01 0.00 0.00 0.00 0.01 0.05 0.05 0.01 0.00 0.00 0.00 0.00 0.00 0.00 0.00 0.00 0.04 0.08 0.07 0.03 0.06 0.05 0.02 0.02 0.00 0.01 0.03 0.11 0.10 0.06 0.03 0.04 0.03 0.13 0.12 0.16 0.18 0.12
0.05 0.09 0.06 0.02 0.03 0.01 0.00 0.00 0.00 0.00 0.00 0.00 0.00 0.00 0.00 0.00 0.00 0.00 0.00 0.00 0.00 0.00 0.00 0.00 0.00 0.01 0.02 0.02 0.01 0.00 0.00 0.00 0.01 0.01 0.00 0.00 0.00 0.00 0.01 0.05 0.22 0.16 0.11
0.01 0.02 0.03 0.02 0.01 0.00 0.00 0.00 0.00 0.00 0.00 0.00 0.00 0.00 0.00 0.00 0.00 0.00 0.00 0.00 0.00 0.00 0.00 0.00 0.00 0.00 0.00 0.00 0.00 0.00 0.00 0.00 0.00 0.00 0.00 0.00 0.00 0.00 0.00 0.01 0.01 0.00 0.00
0.00 0.01 0.00 0.00 0.00 0.00 0.00 0.00 0.00 0.00 0.00 0.00 0.00 0.00 0.00 0.00 0.00 0.00 0.00 0.00 0.00 0.00 0.00 0.00 0.00 0.00 0.00 0.00 0.00 0.00 0.00 0.00 0.00 0.00 0.00 0.00 0.00 0.00 0.00 0.00 0.00 0.00 0.00
0.00 0.00 0.00 0.00 0.00 0.00 0.01 0.01 0.01 0.00 0.00 0.00 0.00 0.00 0.00 0.00 0.00 0.00 0.00 0.00 0.00 0.00 0.00 0.00 0.00 0.00 0.00 0.00 0.00 0.00 0.00 0.00 0.00 0.00 0.00 0.00 0.00 0.00 0.00 0.00 0.00 0.00 0.00
0.00 0.00 0.00 0.00 0.00 0.00 0.00 0.00 0.00 0.00 0.00 0.00 0.00 0.00 0.00 0.00 0.00 0.00 0.00 0.00 0.00 0.00 0.00 0.00 0.00 0.00 0.00 0.00 0.00 0.00 0.00 0.00 0.00 0.00 0.00 0.00 0.00 0.00 0.00 0.00 0.00 0.00 0.00
0.00 0.00 0.00 0.00 0.00 0.00 0.00 0.00 0.00 0.00 0.00 0.00 0.00 0.00 0.00 0.00 0.00 0.00 0.00 0.00 0.00 0.00 0.00 0.00 0.00 0.00 0.00 0.00 0.00 0.00 0.00 0.00 0.00 0.00 0.00 0.00 0.00 0.00 0.00 0.00 0.00 0.00 0.00
0.00 0.00 0.00 0.00 0.00 0.00 0.00 0.00 0.00 0.00 0.00 0.00 0.00 0.00 0.00 0.00 0.00 0.00 0.00 0.00 0.00 0.00 0.00 0.00 0.00 0.00 0.00 0.00 0.00 0.00 0.00 0.00 0.00 0.00 0.00 0.00 0.00 0.00 0.00 0.00 0.00 0.00 0.00
0.00 0.00 0.00 0.00 0.00 0.00 0.00 0.00 0.00 0.00 0.00 0.00 0.00 0.00 0.00 0.00 0.00 0.00 0.00 0.00 0.00 0.00 0.00 0.00 0.00 0.00 0.00 0.00 0.00 0.00 0.00 0.00 0.00 0.00 0.00 0.00 0.00 0.00 0.00 0.00 0.00 0.00 0.00
0.00 0.00 0.00 0.00 0.00 0.00 0.00 0.00 0.00 0.00 0.00 0.00 0.00 0.00 0.00 0.00 0.00 0.00 0.00 0.00 0.00 0.00 0.00 0.00 0.00 0.00 0.00 0.00 0.00 0.00 0.00 0.00 0.00 0.00 0.00 0.00 0.00 0.00 0.00 0.00 0.00 0.00 0.00
0.00 0.00 0.00 0.00 0.00 0.00 0.00 0.00 0.00 0.00 0.00 0.00 0.00 0.00 0.00 0.00 0.00 0.00 0.00 0.00 0.00 0.00 0.00 0.00 0.00 0.00 0.00 0.00 0.00 0.00 0.00 0.00 0.00 0.00 0.00 0.00 0.00 0.00 0.00 0.00 0.00 0.00 0.00
0.00 0.00 0.00 0.00 0.00 0.00 0.00 0.00 0.00 0.00 0.00 0.00 0.00 0.00 0.00 0.00 0.00 0.00 0.00 0.00 0.00 0.00 0.00 0.00 0.00 0.00 0.00 0.00 0.00 0.00 0.00 0.00 0.00 0.00 0.00 0.00 0.00 0.00 0.00 0.00 0.00 0.00 0.00
0.01 0.00 0.00 0.00 0.00 0.00 0.00 0.00 0.00 0.00 0.00 0.00 0.00 0.00 0.00 0.00 0.00 0.00 0.00 0.00 0.00 0.00 0.00 0.00 0.00 0.00 0.00 0.00 0.00 0.00 0.00 0.00 0.00 0.00 0.00 0.00 0.00 0.00 0.00 0.00 0.00 0.00 0.00
0.06 0.04 0.01 0.00 0.00 0.00 0.00 0.00 0.00 0.00 0.00 0.00 0.00 0.00 0.00 0.00 0.00 0.00 0.00 0.00 0.00 0.00 0.00 0.00 0.00 0.00 0.00 0.00 0.00 0.00 0.00 0.00 0.00 0.00 0.00 0.00 0.00 0.00 0.00 0.00 0.00 0.00 0.00
0.07 0.05 0.03 0.01 0.00 0.00 0.00 0.00 0.00 0.00 0.00 0.00 0.00 0.00 0.00 0.00 0.00 0.00 0.00 0.00 0.00 0.00 0.00 0.00 0.00 0.00 0.00 0.00 0.00 0.00 0.00 0.00 0.00 0.00 0.00 0.00 0.00 0.00 0.00 0.00 0.00 0.00 0.00
0.14 0.11 0.07 0.02 0.00 0.00 0.00 0.00 0.00 0.00 0.00 0.00 0.00 0.00 0.00 0.00 0.00 0.00 0.00 0.00 0.00 0.00 0.00 0.00 0.00 0.00 0.00 0.00 0.00 0.00 0.00 0.00 0.00 0.00 0.00 0.00 0.00 0.00 0.00 0.00 0.00 0.00 0.00
0.15 0.17 0.12 0.07 0.02 0.00 0.00 0.00 0.00 0.00 0.00 0.00 0.00 0.00 0.00 0.00 0.00 0.00 0.00 0.00 0.00 0.00 0.00 0.00 0.00 0.00 0.00 0.00 0.00 0.00 0.00 0.00 0.00 0.00 0.00 0.00 0.00 0.00 0.00 0.00 0.00 0.00 0.00